Location: Hamburg
(53.5511°N, 9.9937°E)
Time: 16:19:24
(UTC+02:00)

ISS - Pass Details

Date: 23 March 2026
Orbit: 416 x 425 km, 51.6° (Epoch: 19 April)

Event Time Altitude Azimuth Distance (km) Brightness Sun altitude
Rises 19:55:36 0° 277° (W) 2,390 1.9 -12.0°
Reaches altitude 10° 19:57:47 10° 270° (W) 1,521 0.3 -12.3°
Maximum altitude 20:01:01 41° 200° (SSW) 634 -2.9 -12.7°
Enters shadow 20:02:56 20° 139° (SE) 1,032 -2.3 -13.0°
